Date String (YYYY-MM-DD hh:mm:ss) UTC,Instrument flags,Ambient pressure (hPa),Sample flow (lpm),Bypass flow (lpm),Sample temperature (°C),Ambient temperature (°C),ASC tube jacket temperature (°C),LED temperature (°C),Box temperature (°C),Sample RH (%),Span deviation,Mass concentration (μg/m³),Mass concentration (μg/m³),Mass concentration (μg/m³)
DateTimeUTC,F1_M11,P_M11,Q1_M11,Q2_M11,T1_M11,T2_M11,T3_M11,T4_M11,T5_M11,U1_M11,ZSPAN_M11,X0_M11,X2_M11,X1_M11
2022-03-27 03:00:00,,0823.4,5.00,0.00,29.8,25.6,00.0,38.9,31.1,11.2,0000.0,0016.35,0004.89,0002.99
2022-03-27 03:01:00,,0823.4,5.00,0.00,29.7,25.8,00.0,38.8,31.1,11.3,0000.0,0017.05,0004.95,0003.04
2022-03-27 03:02:00,,0823.4,5.00,0.00,29.6,26.3,00.0,38.7,31.1,11.3,0000.0,0016.46,0005.03,0003.09
2022-03-27 03:03:00,,0823.5,4.99,0.00,29.6,26.7,00.0,38.7,31.2,11.4,0000.0,0015.92,0005.02,0003.12
2022-03-27 03:04:00,,0823.6,5.00,0.00,29.6,27.1,00.0,38.7,31.2,11.4,0000.0,0016.01,0005.04,0003.11
2022-03-27 03:05:00,,0823.6,5.01,0.00,29.6,27.4,00.0,38.6,31.3,11.4,0000.0,0016.67,0005.03,0003.12
2022-03-27 03:06:00,,0823.7,4.98,0.00,29.6,27.7,00.0,38.6,31.3,11.5,0000.0,0017.79,0005.01,0003.12
2022-03-27 03:07:00,,0823.6,5.01,0.00,29.6,27.9,00.0,38.6,31.3,11.5,0000.0,0018.41,0005.04,0003.14
2022-03-27 03:08:00,,0823.6,5.00,0.00,29.6,28.1,00.0,38.6,31.3,11.5,0000.0,0017.87,0005.08,0003.16
2022-03-27 03:09:00,,0823.7,5.01,0.00,29.6,28.2,00.0,38.6,31.4,11.6,0000.0,0017.22,0005.19,0003.21
2022-03-27 03:10:00,,0823.7,5.00,0.00,29.7,28.4,00.0,38.6,31.4,11.6,0000.0,0017.40,0005.31,0003.25
2022-03-27 03:11:00,,0823.7,4.99,0.00,29.7,28.5,00.0,38.6,31.4,11.6,0000.0,0018.72,0005.47,0003.29
2022-03-27 03:12:00,,0823.7,5.01,0.00,29.7,28.5,00.0,38.6,31.5,11.6,0000.0,0019.60,0005.63,0003.32
2022-03-27 03:13:00,,0823.6,4.99,0.00,29.7,28.6,00.0,38.6,31.5,11.6,0000.0,0019.02,0005.63,0003.35
2022-03-27 03:14:00,,0823.6,5.01,0.00,29.8,28.7,00.0,38.6,31.5,11.5,0000.0,0018.90,0005.65,0003.39
2022-03-27 03:15:00,,0823.7,4.99,0.00,29.8,28.7,00.0,38.7,31.5,11.5,0000.0,0018.60,0005.65,0003.43
2022-03-27 03:16:00,,0823.6,4.99,0.00,29.8,28.7,00.0,38.7,31.5,11.5,0000.0,0017.81,0005.69,0003.49
2022-03-27 03:17:00,,0823.6,5.02,0.00,29.8,28.7,00.0,38.7,31.5,11.6,0000.0,0017.10,0005.78,0003.55
2022-03-27 03:18:00,,0823.6,4.98,0.00,29.8,28.8,00.0,38.7,31.5,11.6,0000.0,0017.32,0005.88,0003.63
2022-03-27 03:19:00,,0823.6,4.99,0.00,29.8,28.8,00.0,38.7,31.6,11.5,0000.0,0018.55,0005.86,0003.68
2022-03-27 03:20:00,,0823.6,5.02,0.00,29.9,28.8,00.0,38.7,31.6,11.5,0000.0,0018.57,0005.83,0003.72
2022-03-27 03:21:00,,0823.7,4.99,0.00,29.9,28.8,00.0,38.7,31.6,11.5,0000.0,0018.23,0005.85,0003.78
2022-03-27 03:22:00,,0823.7,5.00,0.00,29.9,28.8,00.0,38.8,31.7,11.5,0000.0,0017.33,0005.84,0003.84
2022-03-27 03:23:00,,0823.7,5.01,0.00,29.9,28.9,00.0,38.8,31.7,11.5,0000.0,0017.51,0005.80,0003.88
2022-03-27 03:24:00,,0823.7,5.00,0.00,29.9,28.9,00.0,38.8,31.7,11.5,0000.0,0018.62,0005.85,0003.91
2022-03-27 03:25:00,,0823.7,5.01,0.00,30.0,28.9,00.0,38.8,31.7,11.5,0000.0,0019.76,0005.97,0003.95
2022-03-27 03:26:00,,0823.7,5.02,0.00,30.0,28.9,00.0,38.8,31.7,11.5,0000.0,0020.50,0006.11,0004.01
2022-03-27 03:27:00,,0823.7,4.99,0.00,30.0,29.0,00.0,38.8,31.7,11.4,0000.0,0021.19,0006.19,0004.05
2022-03-27 03:28:00,,0823.6,5.02,0.00,30.0,29.0,00.0,38.8,31.7,11.4,0000.0,0020.97,0006.21,0004.09
2022-03-27 03:29:00,,0823.7,4.99,0.00,30.0,29.1,00.0,38.9,31.8,11.4,0000.0,0021.90,0006.20,0004.13
2022-03-27 03:30:00,,0823.6,4.99,0.00,30.0,29.1,00.0,38.9,31.7,11.4,0000.0,0021.61,0006.29,0004.21
2022-03-27 03:31:00,,0823.6,5.01,0.00,30.0,29.1,00.0,38.9,31.7,11.4,0000.0,0022.00,0006.39,0004.28
2022-03-27 03:32:00,,0823.6,4.99,0.00,30.0,29.1,00.0,38.9,31.8,11.4,0000.0,0022.08,0006.40,0004.33
2022-03-27 03:33:00,,0823.7,5.00,0.00,30.0,29.1,00.0,38.9,31.8,11.4,0000.0,0022.23,0006.41,0004.37
2022-03-27 03:34:00,,0823.7,5.02,0.00,30.1,29.1,00.0,38.9,31.8,11.4,0000.0,0021.56,0006.47,0004.43
2022-03-27 03:35:00,,0823.7,5.00,0.00,30.1,29.1,00.0,39.0,31.8,11.4,0000.0,0021.53,0006.48,0004.49
2022-03-27 03:36:00,,0823.7,5.00,0.00,30.0,27.4,00.0,39.0,31.4,11.4,0000.0,0020.81,0006.47,0004.54
2022-03-27 03:37:00,,0823.7,5.01,0.00,29.8,25.7,00.0,38.9,31.1,11.5,0000.0,0020.54,0006.50,0004.58
2022-03-27 03:38:00,,0823.6,5.00,0.00,29.7,25.7,00.0,38.9,31.0,11.5,0000.0,0020.55,0006.49,0004.59
2022-03-27 03:39:00,,0823.6,5.01,0.00,29.6,26.1,00.0,38.8,31.1,11.6,0000.0,0021.12,0006.54,0004.62
2022-03-27 03:40:00,,0823.6,4.99,0.00,29.6,26.5,00.0,38.7,31.1,11.7,0000.0,0019.71,0006.62,0004.64
2022-03-27 03:41:00,,0823.6,5.00,0.00,29.6,27.0,00.0,38.7,31.2,11.7,0000.0,0019.40,0006.62,0004.62
2022-03-27 03:42:00,,0823.6,5.01,0.00,29.6,27.3,00.0,38.7,31.2,11.7,0000.0,0019.97,0006.61,0004.61
2022-03-27 03:43:00,,0823.6,4.99,0.00,29.6,27.6,00.0,38.7,31.3,11.7,0000.0,0020.10,0006.62,0004.59
2022-03-27 03:44:00,,0823.6,5.01,0.00,29.6,27.9,00.0,38.6,31.3,11.7,0000.0,0020.90,0006.63,0004.57
2022-03-27 03:45:00,,0823.6,4.99,0.00,29.6,28.0,00.0,38.6,31.3,11.7,0000.0,0020.61,0006.60,0004.53
2022-03-27 03:46:00,,0823.6,5.01,0.00,29.6,28.2,00.0,38.6,31.3,11.6,0000.0,0019.73,0006.61,0004.52
2022-03-27 03:47:00,,0823.6,4.99,0.00,29.7,28.3,00.0,38.6,31.4,11.6,0000.0,0019.57,0006.62,0004.52
2022-03-27 03:48:00,,0823.6,5.01,0.00,29.7,28.4,00.0,38.6,31.4,11.6,0000.0,0020.13,0006.55,0004.52
2022-03-27 03:49:00,,0823.6,4.99,0.00,29.7,28.5,00.0,38.6,31.4,11.6,0000.0,0020.36,0006.64,0004.57
2022-03-27 03:50:00,,0823.6,4.99,0.00,29.7,28.5,00.0,38.6,31.4,11.6,0000.0,0020.63,0006.67,0004.58
2022-03-27 03:51:00,,0823.6,5.01,0.00,29.7,28.6,00.0,38.6,31.4,11.6,0000.0,0020.42,0006.70,0004.58
2022-03-27 03:52:00,,0823.5,4.99,0.00,29.7,28.6,00.0,38.7,31.4,11.5,0000.0,0020.34,0006.77,0004.57
2022-03-27 03:53:00,,0823.5,5.00,0.00,29.8,28.6,00.0,38.7,31.5,11.5,0000.0,0019.96,0006.85,0004.50
2022-03-27 03:54:00,,0823.5,5.00,0.00,29.8,28.6,00.0,38.7,31.5,11.4,0000.0,0020.93,0006.86,0004.42
2022-03-27 03:55:00,,0823.5,5.00,0.00,29.8,28.6,00.0,38.7,31.5,11.5,0000.0,0020.85,0006.84,0004.33
2022-03-27 03:56:00,,0823.4,5.00,0.00,29.8,28.6,00.0,38.7,31.5,11.5,0000.0,0021.22,0006.76,0004.26
2022-03-27 03:57:00,,0823.4,5.00,0.00,29.8,28.6,00.0,38.7,31.5,11.4,0000.0,0021.21,0006.68,0004.17
2022-03-27 03:58:00,,0823.4,5.01,0.00,29.8,28.7,00.0,38.7,31.5,11.4,0000.0,0021.54,0006.62,0004.08
2022-03-27 03:59:00,,0823.4,4.99,0.00,29.8,28.7,00.0,38.7,31.5,11.4,0000.0,0021.20,0006.57,0003.98
